Regional Weather Roundup
Issued by NWS Wakefield, VA

Home | Current Version | Previous Version | Graphics & Text | Print | Product List | Glossary On
Versions: 1 2 3 4 5 6 7 8 9 10 11 12 13 14 15 16 17 18 19 20 21 22 23 24 25 26 27 28 29 30 31 32 33 34 35 36 37 38 39 40 41 42 43 44 45 46 47 48 49 50
000
ASUS41 KAKQ 010215
RWRAKQ

REGIONAL WEATHER ROUNDUP
NATIONAL WEATHER SERVICE WAKEFIELD VA
1000 PM EDT SAT APR 30 2016

Note: "fair" indicates few or no clouds below 12,000 feet with no
significant weather and/or obstructions to visibility. * = Denotes
station may not report precipitation (e.g., rain,snow,etc.),
thunder or fog.

VAZ042-051-052>054-056-010300-
NORTHERN VIRGINIA

CITY           SKY/WX    TMP DP  RH WIND       PRES   REMARKS
WASH NATIONAL  LGT RAIN  55  50  83 S5        30.22R
DULLES         LGT RAIN  53  50  89 S5        30.20S
FORT BELVOIR   LGT RAIN  53  51  92 CALM      30.21R
QUANTICO       LGT RAIN  56  51  84 S8        30.22R
FREDERICKSBRG* LGT RAIN  54  54 100 CALM      30.21R
STAFFORD*      LGT RAIN  52  50  92 CALM      30.25R
WARRENTON      RAIN      54  48  82 CALM      30.20S
CULPEPER*      RAIN      54  53  97 CALM      30.21S
MANASSAS*      CLOUDY    54  54 100 CALM      30.21R
LEESBURG*      LGT RAIN  54  54 100 SE6       30.21S
WINCHESTER     LGT RAIN  52  50  93 SE6       30.17S
FRONT ROYAL*   CLOUDY    52  52 100 CALM      30.15F
LURAY*         RAIN      54  54 100 S5        30.16S
$$

VAZ048-049-060>072-079>083-010300-
CENTRAL AND SOUTH CENTRAL VIRGINIA

CITY           SKY/WX    TMP DP  RH WIND       PRES   REMARKS
RICHMOND       CLOUDY    54  51  90 E5        30.20R
CHESTERFIELD*  CLOUDY    55  43  62 E3        30.21R
PETERSBURG*    CLOUDY    57  52  81 E6        30.20R
HANOVER        CLOUDY    55  49  80 E3        30.22S
TAPPAHANNOCK*  DRIZZLE   55  54  97 CALM      30.23R
QUINTON*       CLOUDY    54  52  93 E5        30.21R
CHARLOTTSVILLE LGT RAIN  55  52  89 NE5       30.18F FOG
GORDONSVILLE*  CLOUDY    54  53  97 N3        30.19S
ORANGE*        LGT RAIN  54  54 100 CALM      30.22S
LOUISA*        CLOUDY    57  55  94 E3        30.19S
BUMPASS*       CLOUDY    53  52  95 CALM      30.21R
FARMVILLE*     CLOUDY    58  56  91 CALM      30.18R
CREWE*         CLOUDY    56  55  99 CALM      30.18S
FORT PICKETT*  NOT AVBL
CHASE CITY*    CLOUDY    56  55  94 E3        30.18R
CLARKSVILLE*   CLOUDY    55  55 100 E5        30.18R
SOUTH HILL*    CLOUDY    55  53  91 CALM      30.24S
LAWRENCEVILLE* CLOUDY    56  53  89 CALM      30.19R
EMPORIA*       CLOUDY    55  50  82 NE7       30.21R
$$

VAZ088>098-010300-
SOUTHEAST VIRGINIA

CITY           SKY/WX    TMP DP  RH WIND       PRES   REMARKS
NORFOLK        FAIR      53  48  83 E8        30.21F
VIRGINIA BEACH CLOUDY    56  48  74 E7        30.21S
NORFOLK NAVAL  FAIR      55  50  83 E8        30.22F
WEST POINT*    CLOUDY    55  51  87 E3        30.23R
SALUDA*        FAIR      54  49  85 E8        30.22R
NEWPORT NEWS   FAIR      54  50  86 E7        30.22S
LANGLEY AFB    MOCLDY    55  50  85 E7        30.21S
FORT EUSTIS    MOCLDY    55  50  81 E6        30.20R
WILLIAMSBURG*  FAIR      55  52  88 E5        30.22R
HR EXEC AP*    CLOUDY    54  48  82 E5        30.23S
FRANKLIN*      CLOUDY    55  49  79 E7        30.21R
US460-WAKEFLD  CLOUDY    56  49  77 E5        30.20S
$$

VAZ020-022-025-037-045-010300-
WEST CENTRAL AND SOUTHWEST VIRGINIA

CITY           SKY/WX    TMP DP  RH WIND       PRES   REMARKS
STAUNTON*      DRIZZLE   55  54  97 CALM      30.17F
WAYNESBORO*    CLOUDY    52  51  96 MISG      30.17F
HOT SPRINGS VA MIX PCPN  49  49 100 S12       30.13S VSB<1/4
LYNCHBURG      CLOUDY    54  53  97 NE5       30.20R
DANVILLE       CLOUDY    56  55  97 NE7       30.16R FOG
SOUTH BOSTON*  CLOUDY    56  55  95 CALM      30.18R
MARTINSVILLE   CLOUDY    53  53  99 E3        30.18S FOG
ROANOKE        LGT RAIN  54  53  97 SE6       30.18F
BLACKSBURG     RAIN      53  53 100 E6        30.19R
DUBLIN*        RAIN      55  55 100 E7        30.17S
MARION*        LGT RAIN  57  56  94 NE10      30.16S
HILLSVILLE*    LGT RAIN  54  54 100 E7        30.14R
RICHLANDS*     DRIZZLE   58  56  96 SE10      30.06F
WISE*          RAIN      59  59 100 S8        30.07S
ABINGDON*      MOCLDY    62  60  96 E9        30.06F
$$

MDZ021>025-VAZ099-100-010300-
SOUTHERN MARYLAND AND THE DELMARVA PENINSULA

CITY           SKY/WX    TMP DP  RH WIND       PRES   REMARKS
PATUXENT RIVER CLOUDY    55  48  77 SE12      30.21R
BAY BRIDGE APT NOT AVBL
LEONARDTOWN    CLOUDY    52  48  87 CALM      30.23R
DOVER          CLOUDY    51  42  69 SE6       30.23R
GEORGETOWN     MOCLDY    50  42  74 SE3       30.25R
EASTON         NOT AVBL
CAMBRIDGE      CLOUDY    52  43  71 SE8       30.22F
SALISBURY      CLOUDY    50  44  80 SE5       30.23S
OCEAN CITY     CLOUDY    51  45  79 E5        30.24S
WALLOPS ISLAND CLOUDY    52  45  77 E7        30.24S
ACCOMACK*      MOCLDY   N/A N/A N/A E6        30.23S
$$

NCZ012>017-030>032-010300-
NORTH CENTRAL AND EASTERN NORTH CAROLINA

CITY           SKY/WX    TMP DP  RH WIND       PRES   REMARKS
ROANOKE RAPIDS MOCLDY    59  54  82 E3        30.18S
RALEIGH        CLOUDY    60  56  86 E7        30.17R
ELIZABETH CITY CLOUDY    54  51  90 NE12      30.20F
AHOSKIE*       CLOUDY    57  50  78 E6        30.20R
EDENTON*       CLEAR     57  55  93 E5        30.20R
CURRITUCK*     MOCLDY    55  52  90 NE5       30.22S
KILL DEVIL HLS MOCLDY    54  52  95 NE6       30.20R
MANTEO         NOT AVBL
CAPE HATTERAS  CLEAR     56  54  93 NE7       30.19S
TARBORO*       CLOUDY    61  55  82 E5        30.19R
GOLDSBORO      CLOUDY    63  63 100 E8        30.14R
WASHINGTON     CLOUDY    58  52  79 E8        30.18S
GREENVILLE     CLOUDY    61  55  82 E7        30.19R
NEW BERN       CLOUDY    62  56  80 E8        30.18S
WILMINGTON     CLOUDY    64  58  80 E13G20    30.14R
$$

VAZ048-010300-
ELSEWHERE

CITY           SKY/WX    TMP DP  RH WIND       PRES   REMARKS
HARRISBURG PA  CLOUDY    56  46  69 SE7       30.19R
BALTIMORE      LGT RAIN  53  50  89 CALM      30.21R
ANNAPOLIS      CLOUDY    56  50  80 MISG      30.21S
ANDREWS AFB    DRIZZLE   52  50  93 SE2       30.20S
PHILADELPHIA   CLOUDY    54  33  45 SE7       30.24R
HENDERSON NC   MOCLDY    58  58 100 E5        30.18R
GREENSBORO     CLOUDY    59  58  96 E10       30.13R FOG
ROCKY MOUNT    CLOUDY    60  56  86 E3        30.17R
$$

VAZ100-010300-
MARINE

STATION/POSITION TIME  TEMP    WIND        PRES    WAVE   SWELL
                       AIR SEA DIR/SP/G            HT/PER HT/PER
                 (UTC) (F)     (DEG/KT/KT) (MB)    (FT/S) (FT/S)
BRANDYWINE LGT   0100   51     120/ 10/ 11 1024.0R
CAPE MAY NJ      0100   50 57   80/  6/  9 1023.6S
LEWES DE         0100   51 56  130/  5/  7 1024.0R
15NM E FENWICK I 0150   50 51              1023.6F   6/ 8
OCEAN-CITY-INLET 0100   51 56  100/  6/  9 1023.3R
WACHAPREAGUE VA  0100   52 62   70/  9/ 11 1023.0R
THOMAS POINT MD  0200   55 57  130/ 11/ 12 1023.9F
GOOSES REEF MD   0200   56 57  120/ 10/ 14 1023.8S   0
COVE POINT MD    0100   55     170/  5/  6 1023.5S
SOLOMONS ISLAND  0100   56 59  100/  5/  6   N/A
BISHOPS HEAD MD  0100   54 59  120/ 11/ 14 1022.7R
PINEY POINT MD   0100          140/ 10/ 11   N/A
POTOMAC MD       0200   54 59  130/ 14/ 16 1022.3F   1/ 2
CAMBRIDGE MD     0100   54 60   90/  7/  9 1022.9R
LEWISETTA VA     0100   56 60  130/ 15/ 18 1022.4F
RAPPAHANNOCK LGT 0100           90/ 11/ 12 1023.8R
STINGRAY PT      0200   54 61  110/ 14/ 17 1023.3S   2/ 3
YORK RVR RNG VA  0100   55     100/ 13/ 14 1022.4R
YORKTOWN VA      0100   56 62  110/ 12/ 15 1022.7R
JAMESTOWN VA     0200   56 66  110/ 10/ 12   N/A     0
DOMINION TERM VA 0100   55      90/ 13/ 17 1023.0R
KIPTOPEKE VA     0100      60   90/  7/ 12   N/A
CHES BAY BRIDGE  0100   54 60   60/ 13/ 15 1022.6R
CAPE HENRY VA    0100   53      70/ 12/ 14   N/A
CHESAPEAKE LGHT  0100   52      60/ 16/ 17 1023.7R
WILLOUBY STN VA  0100   55      90/ 12/ 14 1023.9R
CAPE HENRY BUOY  0112      55                N/A     5/ 9   2/11
CAPE CHARLES BUO 0126      57                N/A     4/ 9   3/ 9
OFFSHORE WE BUOY 0121      54                N/A     5/ 9   5/ 9
64NM E OF VA BCH 0150   53 53   30/ 12/ 14 1022.7R   6/ 9   7/ 9
DUCK PIER NC     0100   54 67   40/ 17/ 18 1022.2R
44100 DUCK FRF   0124      54                N/A     5/ 9   2/11
44056 DUCK FRF   0111      59                N/A     5/ 8   2/11
OREGON INLET NC  0100   55 62   30/  9/ 13 1022.1R
HATTERAS NC      0100   58 69   50/ 10/ 14 1021.7R
DIAMOND SHLS NC  0150   63 74   50/ 14/ 16 1021.9R   5/ 9   5/ 9
CAPE LOOKOUT NC  0200   62      60/ 15/ 16 1C1F1C2F2C3F3C4F4C5F5C6F6C7F7C8M1C9!


USA.gov is the U.S. government's official web portal to all federal, state and local government web resources and services.